Starlink 30956

operational
NORAD ID: 58481 Int'l Des: 2023-186 Owner: SPXS Country: US Constellation: starlink
LEOCIRCULAR

About Starlink 30956

Description loading...

Live Position

Loading 3D Globe...

Upcoming Passes

Altitude History

Altitude vs Time

uPlot chart will show altitude changes over time

Two-Line Element Set

1 58481U 23186J 25258.31625509 -.00000130 00000-0 54804-5 0 9990
2 58481 43.0024 275.7160 0001253 280.0597 80.0104 15.02535323 99753
Epoch: Sep 15, 2025 • Age: 32 hours

Current Status

Altitude 558.2 km
Velocity 7.58 km/s
Sub-Earth Point 4.99°N, 45.01°E
Launch Date Dec 3, 2023
Age 1.7 years
Type internet

Technical Details

Classification Payload
Mass 730.00 kg
Dry Mass 700.00 kg
Total Mass 730.00 kg
Length 0.30 m
Diameter 4.10 m
Span 29.00 m
Shape Box + pan
Manufacturer SPXS
Bus Type Starlink V2M
Phase Status In Orbit
Owner/State SPXS/US

Large Constellations

Loading constellations...